TimeWST,TemperatureF,Dew PointF,Humidity,Sea Level PressureIn,VisibilityMPH,Wind Direction,Wind SpeedMPH,Gust SpeedMPH,PrecipitationIn,Events,Conditions,WindDirDegrees,DateUTC
12:00 AM,76,65,61,29.81,,North,6.9,,,,,0,2013-09-14 16:00:00
12:00 AM,75.2,64.4,69,29.80,6.2,North,6.9,-,N/A,,Unknown,360,2013-09-14 16:00:00
12:30 AM,75.2,66.2,73,29.80,6.2,North,4.6,-,N/A,,Unknown,360,2013-09-14 16:30:00
1:00 AM,77.0,64.4,65,29.80,6.2,NW,5.8,-,N/A,,Unknown,310,2013-09-14 17:00:00
1:30 AM,75.2,64.4,69,29.80,6.2,North,6.9,-,N/A,,Unknown,350,2013-09-14 17:30:00
2:00 AM,74,66,70,29.79,,North,6.9,,,,,10,2013-09-14 18:00:00
2:00 AM,75.2,66.2,73,29.77,6.2,North,6.9,-,N/A,,Unknown,10,2013-09-14 18:00:00
2:30 AM,73.4,66.2,78,29.80,6.2,North,6.9,-,N/A,,Unknown,360,2013-09-14 18:30:00
3:00 AM,74,67,72,29.80,,West,2.3,,,,,280,2013-09-14 19:00:00
3:00 AM,73.4,66.2,78,29.80,6.2,West,2.3,-,N/A,,Unknown,270,2013-09-14 19:00:00
3:30 AM,73.4,68.0,83,29.80,6.2,North,5.8,-,N/A,,Unknown,360,2013-09-14 19:30:00
4:00 AM,73.4,68.0,83,29.80,6.2,Calm,Calm,-,N/A,,Unknown,0,2013-09-14 20:00:00
4:30 AM,73.4,68.0,83,29.83,6.2,ENE,3.5,-,N/A,,Unknown,70,2013-09-14 20:30:00
5:00 AM,71,68,87,29.83,,Calm,Calm,,,,,,2013-09-14 21:00:00
5:00 AM,71.6,68.0,88,29.83,6.2,Calm,Calm,-,N/A,,Unknown,0,2013-09-14 21:00:00
5:30 AM,71.6,66.2,83,29.83,6.2,SSE,1.2,-,N/A,,Unknown,150,2013-09-14 21:30:00
6:00 AM,73,68,81,29.86,,SSE,1.2,,,,,150,2013-09-14 22:00:00
6:00 AM,73.4,68.0,83,29.86,6.2,SSE,1.2,-,N/A,,Unknown,150,2013-09-14 22:00:00
6:30 AM,77.0,69.8,78,29.86,6.2,ESE,2.3,-,N/A,,Unknown,110,2013-09-14 22:30:00
7:00 AM,80.6,68.0,65,29.89,6.2,ENE,3.5,-,N/A,,Unknown,60,2013-09-14 23:00:00
7:30 AM,84.2,68.0,58,29.89,6.2,NNE,4.6,-,N/A,,Unknown,30,2013-09-14 23:30:00
8:00 AM,86,66,41,29.89,,SW,3.5,,,,,220,2013-09-15 00:00:00
8:00 AM,86.0,66.2,51,29.89,6.2,SW,3.5,-,N/A,,Unknown,220,2013-09-15 00:00:00
8:30 AM,89.6,57.2,33,29.89,6.2,WSW,5.8,-,N/A,,Unknown,250,2013-09-15 00:30:00
9:00 AM,92,54,18,29.88,,WSW,5.8,,,,,250,2013-09-15 01:00:00
9:00 AM,91.4,53.6,28,29.89,6.2,WSW,5.8,-,N/A,,Unknown,250,2013-09-15 01:00:00
9:30 AM,95.0,51.8,23,29.86,6.2,SW,5.8,-,N/A,,Unknown,230,2013-09-15 01:30:00
10:00 AM,95.0,51.8,23,29.86,6.2,South,5.8,-,N/A,,Unknown,190,2013-09-15 02:00:00
10:30 AM,96.8,50.0,20,29.83,6.2,SSE,3.5,-,N/A,,Unknown,150,2013-09-15 02:30:00
11:00 AM,98,48,10,29.83,,NE,5.8,,,,,40,2013-09-15 03:00:00
11:00 AM,98.6,48.2,18,29.83,6.2,NE,5.8,-,N/A,,Unknown,40,2013-09-15 03:00:00
11:30 AM,98.6,46.4,17,29.80,6.2,WSW,8.1,-,N/A,,Unknown,240,2013-09-15 03:30:00
12:00 PM,98.6,46.4,17,29.80,6.2,WNW,5.8,-,N/A,,Unknown,300,2013-09-15 04:00:00
12:30 PM,100.4,46.4,16,29.77,6.2,ESE,6.9,-,N/A,,Unknown,120,2013-09-15 04:30:00
1:00 PM,100.4,48.2,17,29.77,6.2,SSE,5.8,-,N/A,,Unknown,160,2013-09-15 05:00:00
1:30 PM,100.4,44.6,15,29.74,6.2,ENE,4.6,-,N/A,,Scattered Clouds,60,2013-09-15 05:30:00
2:00 PM,100.4,46.4,16,29.74,6.2,NE,4.6,-,N/A,,Scattered Clouds,50,2013-09-15 06:00:00
2:30 PM,100.4,42.8,14,29.71,6.2,East,8.1,-,N/A,,Scattered Clouds,100,2013-09-15 06:30:00
3:00 PM,100,44,8,29.73,,SE,9.2,,,,,130,2013-09-15 07:00:00
3:00 PM,100.4,44.6,15,29.71,6.2,SE,9.2,-,N/A,,Scattered Clouds,130,2013-09-15 07:00:00
3:30 PM,100.4,42.8,14,29.71,6.2,SE,8.1,-,N/A,,Unknown,130,2013-09-15 07:30:00
4:00 PM,100.4,44.6,15,29.71,6.2,East,4.6,-,N/A,,Scattered Clouds,100,2013-09-15 08:00:00
4:30 PM,100.4,42.8,14,29.71,6.2,ESE,3.5,-,N/A,,Unknown,120,2013-09-15 08:30:00
5:00 PM,96,52,14,29.73,,East,4.6,,,,,80,2013-09-15 09:00:00
5:00 PM,95.0,51.8,23,29.74,6.2,East,4.6,-,N/A,,Unknown,80,2013-09-15 09:00:00
5:30 PM,91.4,57.2,31,29.74,6.2,North,11.5,-,N/A,,Unknown,10,2013-09-15 09:30:00
6:00 PM,90,58,24,29.76,,North,9.2,,,,,0,2013-09-15 10:00:00
6:00 PM,89.6,57.2,33,29.77,6.2,North,9.2,-,N/A,,Unknown,360,2013-09-15 10:00:00
6:30 PM,87.8,59.0,38,29.77,6.2,North,10.4,-,N/A,,Unknown,360,2013-09-15 10:30:00
7:00 PM,86.0,60.8,43,29.80,6.2,North,9.2,-,N/A,,Unknown,360,2013-09-15 11:00:00
7:30 PM,84.2,60.8,45,29.80,6.2,North,10.4,-,N/A,,Unknown,360,2013-09-15 11:30:00
8:00 PM,83,60,36,29.83,,North,10.4,,,,,0,2013-09-15 12:00:00
8:00 PM,82.4,60.8,48,29.83,6.2,North,10.4,-,N/A,,Unknown,360,2013-09-15 12:00:00
8:30 PM,80.6,64.4,58,29.83,6.2,North,8.1,-,N/A,,Unknown,10,2013-09-15 12:30:00
9:00 PM,80,65,52,29.83,,North,8.1,,,,,10,2013-09-15 13:00:00
9:00 PM,78.8,66.2,65,29.83,6.2,North,8.1,-,N/A,,Unknown,10,2013-09-15 13:00:00
9:30 PM,78.8,68.0,69,29.83,6.2,North,9.2,-,N/A,,Unknown,360,2013-09-15 13:30:00
10:00 PM,78.8,68.0,69,29.83,6.2,North,8.1,-,N/A,,Unknown,360,2013-09-15 14:00:00
10:30 PM,77.0,68.0,74,29.83,6.2,North,3.5,-,N/A,,Unknown,360,2013-09-15 14:30:00
11:00 PM,76,69,73,29.83,,North,6.9,,,,,10,2013-09-15 15:00:00
11:00 PM,75.2,69.8,83,29.83,6.2,North,6.9,-,N/A,,Unknown,10,2013-09-15 15:00:00
11:30 PM,75.2,69.8,83,29.83,6.2,North,6.9,-,N/A,,Unknown,10,2013-09-15 15:30:00